OPS 6431

Satellite information

Favourite Embed

Satellite Type and Status

PAYLOADIN ORBIT

Key statistics

Satellite OPS 6431 at a glance.

Uptime

18026

Days in orbit

Revolutions

≈ 13.9

Per day

Orbit

LEO

Low Earth Orbit

Inclination

63.4

Latest

Satellite identification and parameters

Extended collection of information and parameters for OPS 6431.

Object identification

Identified? True

Debris? False

Object name: OPS 6431

International designator: 1976-038A

Object number (NORAD): 8818

Object ID (CCSDS): 8818

Country: UNITED STATES OF AMERICA (US)

Current information (Y/N): Y

RCS size: LARGE

Orbital parameters

Period: 103.488 minutes

Inclination: 63.3544 deg

SMA: 7301.624 km

Apoapsis: 1207.607 km

Periapsis: 639.372 km

RAAN: 150.173 deg

Eccentricy: 0.03891155

Argument of periapsis: 178.7058 deg

Mean anomaly: 181.5099 deg

Mean motion: 13.91469047 rev/day

Mean motion (dot): 0.00000153 rev/day2

B* drag term: 0.00011386316 1/REarth

Two-line elements (TLE)

Creation date: Sept. 6, 2025, 2:09 a.m.

Reference frame: TEME

Reference center: EARTH

Epoch: Sept. 5, 2025, 9:48 p.m. UTC

TLE line 0: 0 OPS 6431

TLE line 1: 1 08818U 76038A 25248.90841945 .00000153 00000-0 11386-3 0 9991

TLE line 2: 2 08818 63.3544 150.1730 0389116 178.7058 181.5099 13.91469047 67665

Live tracking on map

Real-time ground track for satellite OPS 6431.

In-orbit conjunctions

There are no conjunctions computed for OPS 6431, at the moment. Check back to stay up to date, as we update our databases every day.

Go to all conjunctions

Associated space launch

Parcae 1A, B and C were passive ELINT satellites. MSD 1 was a dispenser of triplets of ocean surveillance satellites.

OPS 6431 was lifted into orbit during the mission ‘Atlas F/MSD | Parcae 1A,B,C & MSD 1’, on board a Atlas F/MSD space rocket.

The launch took place on April 30, 1976, 7:12 p.m. from Space Launch Complex 3W.

For more information about the launch, click the button.

Launch to space Atlas F/MSD | Parcae 1A,B,C & MSD 1
Atlas F/MSD | Parcae 1A,B,C & MSD 1

Agency: N/A

Status: Launch Successful

Launch date: April 30, 1976, 7:12 p.m. UTC

Rocket: Atlas F/MSD

Launch pad: Space Launch Complex 3W

Location: Vandenberg SFB, CA, USA

...

Latest news about this satellite

There are no fresh news available about this satellite. Check back as we update our databases every day.


Newsletter sign-up

Weekly statistics, charts and insights to help you stay on top of the space industry.